Downstream station:
SHEF ID: INCM7 Indian Creek near Lanagan, MO
STATION TYPE:
PRECIP STAGE RIV-FLOW BAT-LOAD
in ft cfs volt
Ccp-Rev Ccp-Rev Ccp-Rev Ccp-Rev
(US/Central)
04/21 00:00 0.00 1.98 270 12.65
04/21 01:00 0.00 1.99 274 12.60
04/21 02:00 0.00 1.98 270 12.60
04/21 03:00 0.00 1.98 270 12.54
04/21 04:00 0.00 1.98 270 12.54
04/21 05:00 0.00 1.97 267 12.48
04/21 06:00 0.00 1.96 264 12.42
04/21 07:00 0.00 1.97 267 12.42
04/21 08:00 0.00 1.97 267 12.54
04/21 09:00 0.00 1.98 270 12.77
04/21 10:00 0.00 1.98 270 13.00
04/21 11:00 0.00 1.97 267 13.36
04/21 12:00 0.00 1.97 267 13.83
04/21 13:00 0.00 1.97 267 14.12
04/21 14:00 0.00 1.95 261 13.71
04/21 15:00 0.00 1.96 264 13.71
04/21 16:00 0.00 1.97 267 13.24
04/21 17:00 0.00 1.96 264 13.83
04/21 18:00 0.00 1.95 261 13.83
04/21 19:00 0.00 1.95 261 13.65
04/21 20:00 0.00 1.94 257 13.00
04/21 21:00 0.00 1.96 264 12.77
04/21 22:00 0.00 1.95 261 12.71
04/21 23:00 0.00 1.94 257 12.65